Location: Home
(42.5358°N, 72.7383°W)
Time: 09:58:48
(UTC-04:00)

A-11 Canister half - Pass Details

Date: 26 June 2022
Orbit: 1514 x 1685 km, 47.2° (Epoch: 15 August)

Event Time Altitude Azimuth Distance (km) Brightness Sun altitude
Rises 22:51:52 0° 211° (SSW) 4,924 11.4 -18.4°
Reaches altitude 10° 22:55:13 10° 205° (SSW) 3,940 10.8 -18.7°
Maximum altitude 23:04:37 45° 137° (SE) 2,168 9.3 -19.5°
Drops below altitude 10° 23:13:54 10° 69° (ENE) 3,895 11.1 -20.2°
Sets 23:17:10 0° 64° (ENE) 4,864 11.7 -20.5°
